AL YAH 3 (43174 NORAD) Tracking and Keplerian Element Data

This shows tracking and keplerian element data for the satellite.

Feedback or suggestion? Click here.




ElementValue
Catalog43174
NameAL YAH 3
Epoch Orbit1721
Epoch Day269.73836149
Epoch Year2022
RAAN94.2951
Inclination0.1086
Eccentricity0.0001653
Argument of Perigee113.583
Mean Anonmoly43.3522
Mean Motion1.00270404
Decay Rate-1.52E-06
L11 43174U 18012A 22269.73836149 -.00000152 00000+0 00000+0 0 9990
L22 43174 0.1086 94.2951 0001653 113.5830 43.3522 1.00270404 17210

Live tracking and technical data element details for AL YAH 3 (NORAD 43174). AL YAH 3 can be tracked NOW for your location showing map with azimuth and elevation plus other details from your city location.

Track the satellite on the map from your city or location and see movement details for azimuth, elevation, latitude, longitude, range, height, and movement on the map or in text.







IsCatalogInMostPopularTable: catalog: 43174, numindb: 855
Update: records affected: 1



GetName: 43174 AL YAH 3

Hit Count: updated at: Wed, 28 Sep 2022 21:51:26 GMT